Home > Time Zones > World Clock > Weather > Italy > Monza > Past weeks

Flag for Italy Weather past 2 weeks in Monza, Italy

Now
66 °F

Sunny.


Feels Like: 66 °F
Forecast: 69 / 87 °F
Wind: 2 mph from North

Location: Milan / Linate

Current Time: Aug 2, 2015 at 8:40:01 AM

Latest Report: Aug 2, 2015 at 7:50 AM


Visibility: 10 mi

Pressure: 30.01 "Hg

Humidity: 83%

Dew point: 61 °F

Location of MonzaLocation

Historic Weather in Monza — Graph

°F

Monza temperature yesterday

Maximum temperature yesterday: 72 °F (at 12:20 AM)
Minimum temperature yesterday: 64 °F (at 6:50 PM)
Average temperature yesterday: 68 °F

Past Weeks' High & Low Weather Summary

 TemperatureHumidityPressure
High99 °F (Jul 22, 3:50 PM)100% (Aug 2, 4:20 AM)30.04 "Hg (Aug 2, 4:20 AM)
Low63 °F (Aug 2, 4:20 AM)26% (Jul 23, 6:50 PM)29.62 "Hg (Jul 27, 4:50 PM)
Average81 °F57%29.84 "Hg
* Reported Jul 18 7:20 AM — Aug 2 7:20 AM, Monza, Weather by CustomWeather, © 2015

Note: Actual official high and low records may vary slightly from our data, if they occured in-between our weather recording intervals... More about our weather records

Advertising

Monza weather history for previous 24 hours

 ConditionsComfort  
Time TempWeatherWind HumidityBarometerVisibility
7:20 AM
Sun, Aug 2
64 °FSunny.2 mph94%30.01 "Hg10 mi
6:50 AM63 °FClear.1 mph94%30.01 "Hg10 mi
6:20 AM63 °FClear.3 mph94%30.01 "Hg10 mi
5:50 AM63 °FClear.2 mph94%30.01 "Hg10 mi
5:20 AM63 °FPassing clouds.3 mph94%30.01 "HgN/A
4:50 AM63 °FPassing clouds.5 mph94%30.01 "HgN/A
4:20 AM63 °FPassing clouds.3 mph100%30.01 "HgN/A
3:50 AM64 °FPassing clouds.6 mph94%30.01 "HgN/A
3:20 AM64 °FPassing clouds.5 mph94%30.01 "HgN/A
2:50 AM64 °FPassing clouds.3 mph94%30.01 "HgN/A
2:20 AM66 °FPassing clouds.3 mph88%30.01 "HgN/A
1:50 AM66 °FPassing clouds.2 mph88%30.01 "HgN/A
1:20 AM66 °FPassing clouds.5 mph88%30.01 "HgN/A
12:50 AM66 °FPassing clouds.3 mph88%30.01 "HgN/A
11:50 PM
Sat, Aug 1
64 °FPassing clouds.3 mph94%30.01 "HgN/A
11:20 PM64 °FPassing clouds.3 mph94%30.01 "HgN/A
10:50 PM64 °FPassing clouds.3 mph94%30.01 "HgN/A
10:20 PM64 °FPassing clouds.2 mph94%30.01 "HgN/A
9:50 PM64 °FBroken clouds.1 mph94%30.01 "HgN/A
9:20 PM64 °FBroken clouds.1 mph94%30.01 "Hg5 mi
8:50 PM64 °FPartly sunny.2 mph94%29.98 "Hg5 mi
8:20 PM64 °FBroken clouds.3 mph94%29.98 "Hg4 mi
7:50 PM64 °FLight rain. Mostly cloudy.2 mph94%29.98 "Hg5 mi
7:20 PM64 °FHeavy rain. Fog.3 mph94%30.01 "Hg2 mi
6:50 PM64 °FRain. Fog.5 mph94%30.01 "Hg3 mi
6:20 PM66 °FLight rain. Mostly cloudy.5 mph83%30.01 "Hg4 mi
5:50 PM66 °FLight rain. Mostly cloudy.2 mph78%30.01 "HgN/A
5:20 PM66 °FLight rain. Cloudy.6 mph78%30.01 "HgN/A
4:50 PM68 °FLight rain. Mostly cloudy.3 mph73%30.01 "Hg5 mi
4:20 PM68 °FCloudy.3 mph73%30.01 "HgN/A
3:50 PM66 °FLight rain. Mostly cloudy.5 mph88%30.01 "Hg5 mi
3:20 PM68 °FLight rain. Partly sunny.6 mph78%30.01 "HgN/A
2:50 PM72 °FLight rain. Partly sunny.7 mph57%30.01 "HgN/A
2:20 PM72 °FPartly sunny.6 mph61%30.01 "HgN/A
1:50 PM72 °FPartly sunny.6 mph61%30.01 "HgN/A
1:20 PM72 °FPartly sunny.7 mph65%30.01 "HgN/A
12:50 PM72 °FPartly sunny.5 mph69%30.01 "HgN/A
12:20 PM72 °FPartly sunny.5 mph69%30.01 "HgN/A
11:50 AM70 °FPartly sunny.5 mph78%30.01 "HgN/A
11:20 AM68 °FPartly sunny.2 mph78%30.01 "HgN/A
10:50 AM68 °FPartly sunny.2 mph73%30.01 "HgN/A
10:20 AM66 °FRain showers. Broken clouds.3 mph83%30.01 "HgN/A
9:50 AM66 °FPartly sunny.2 mph83%30.01 "HgN/A
9:20 AM68 °FPartly sunny.3 mph73%29.98 "HgN/A
8:50 AM68 °FPartly sunny.6 mph73%29.98 "HgN/A
8:20 AM66 °FScattered clouds.5 mph78%29.98 "HgN/A
Weather by CustomWeather, © 2015

See weather overviewHow to use our weather pages